CW8443 Weather Reports


Display with metric or nautical units.
time (UTC)temp
F
wind
direction
speed
MPH
gust
MPH
rain 1hr
in
rain 24hr
in
rain mn
in
humidity
%
barometer
mb
20260507101741 71 161 0.0 0.0 0.00 0.00 0.00 72 1004.6
20260507101253 71 175 0.0 0.0 0.00 0.00 0.00 71 1004.5
20260507100742 71 178 0.0 0.0 0.00 0.00 0.00 71 1004.5
20260507100256 71 168 0.0 0.0 0.00 0.00 0.00 71 1004.5
20260507100140 71 162 0.0 0.0 0.00 0.00 0.00 71 1004.5
20260507095741 71 162 0.0 0.0 0.00 0.00 0.00 71 1004.3
20260507095252 71 154 0.0 0.0 0.00 0.00 0.00 70 1004.3
20260507094744 72 151 0.0 0.0 0.00 0.00 0.00 70 1004.3
20260507094253 72 186 0.0 0.0 0.00 0.00 0.00 69 1004.2
20260507093742 72 169 0.0 0.0 0.00 0.00 0.00 68 1004.2
20260507093240 72 148 0.0 0.0 0.00 0.00 0.00 68 1004.2
20260507092750 72 142 0.0 0.0 0.00 0.00 0.00 68 1004.1
20260507092237 73 161 0.0 0.0 0.00 0.00 0.00 67 1004.1
20260507091752 73 179 0.0 0.0 0.00 0.00 0.00 67 1004.1
20260507091244 73 132 0.0 0.0 0.00 0.00 0.00 66 1004.2
20260507090740 73 127 1.0 0.0 0.00 0.00 0.00 66 1004.2
20260507090237 73 161 2.0 0.0 0.00 0.00 0.00 65 1004.2
20260507090141 73 156 2.0 0.0 0.00 0.00 0.00 65 1004.2
20260507085746 73 130 2.0 0.0 0.00 0.00 0.00 65 1004.1
20260507085236 74 121 2.0 0.0 0.00 0.00 0.00 65 1004.1
20260507084748 74 168 2.0 0.0 0.00 0.00 0.00 65 1004.1
20260507084240 74 193 4.0 0.0 0.00 0.00 0.00 65 1004.2
20260507083752 74 128 4.0 0.0 0.00 0.00 0.00 64 1004.2
20260507083254 74 170 4.0 0.0 0.00 0.00 0.00 62 1004.2
20260507083138 74 169 4.0 0.0 0.00 0.00 0.00 62 1004.2
20260507082738 74 128 5.0 0.0 0.00 0.00 0.00 62 1004.4
20260507082247 74 125 5.0 0.0 0.00 0.00 0.00 63 1004.4
20260507081740 74 142 6.0 0.0 0.00 0.00 0.00 62 1004.4
20260507081247 74 168 6.0 0.0 0.00 0.00 0.00 63 1004.4
20260507080737 75 182 5.0 0.0 0.00 0.00 0.00 62 1004.4
20260507080256 75 161 5.0 0.0 0.00 0.00 0.00 62 1004.4
20260507080141 75 166 5.0 0.0 0.00 0.00 0.00 61 1004.4
20260507075255 75 141 6.0 0.0 0.00 0.00 0.00 61 1004.4
20260507074243 76 148 5.0 0.0 0.00 0.00 0.00 61 1004.5
20260507073128 75 96 5.0 0.0 0.00 0.00 0.00 62 1004.5
20260507072753 75 122 4.0 0.0 0.00 0.00 0.00 62 1004.7
20260507072240 75 180 4.0 0.0 0.00 0.00 0.00 62 1004.7
20260507071754 75 245 4.0 0.0 0.00 0.00 0.00 62 1004.7
20260507071243 75 200 5.0 0.0 0.00 0.00 0.00 63 1004.9
20260507070736 75 159 6.0 0.0 0.00 0.00 0.00 62 1004.9
20260507070247 76 118 7.0 0.0 0.00 0.00 0.00 60 1004.9
20260507070131 76 117 7.0 0.0 0.00 0.00 0.00 61 1004.9
20260507065246 75 186 6.0 0.0 0.00 0.00 0.00 62 1004.9
20260507064738 75 89 7.0 0.0 0.00 0.00 0.00 62 1004.9
20260507064249 75 156 6.0 0.0 0.00 0.00 0.00 63 1004.8
20260507063739 75 132 7.0 0.0 0.00 0.00 0.00 62 1004.8
20260507063140 75 179 7.0 0.0 0.00 0.00 0.00 62 1004.8
20260507062740 76 158 6.0 0.0 0.00 0.00 0.00 60 1005.0
20260507062250 76 111 6.0 0.0 0.00 0.00 0.00 60 1005.0
20260507061739 76 125 5.0 0.0 0.00 0.00 0.00 60 1005.0
20260507061248 75 125 3.0 0.0 0.00 0.00 0.00 61 1005.4
20260507060745 75 139 2.0 0.0 0.00 0.00 0.00 61 1005.4
20260507060243 75 163 2.0 0.0 0.00 0.00 0.00 61 1005.4
20260507060128 75 117 2.0 0.0 0.00 0.00 0.00 61 1005.4
20260507055748 75 148 3.0 0.0 0.00 0.00 0.00 61 1005.5
20260507054245 76 132 6.0 0.0 0.00 0.00 0.00 57 1005.8
20260507053750 76 173 6.0 0.0 0.00 0.00 0.00 57 1005.8
20260507053246 77 146 6.0 0.0 0.00 0.00 0.00 54 1005.8
20260507053129 78 156 5.0 0.0 0.00 0.00 0.00 54 1005.8
20260507052245 77 114 4.0 0.0 0.00 0.00 0.00 55 1006.1
20260507051250 76 91 2.0 0.0 0.00 0.00 0.00 57 1006.2
20260507050736 75 158 4.0 0.0 0.00 0.00 0.00 57 1006.2
20260507050251 76 154 4.0 0.0 0.00 0.00 0.00 57 1006.2
20260507050135 76 146 4.0 0.0 0.00 0.00 0.00 57 1006.2
20260507045750 76 146 4.0 0.0 0.00 0.00 0.00 56 1006.5
20260507045241 76 178 5.0 0.0 0.00 0.00 0.00 57 1006.5
20260507044247 75 137 4.0 0.0 0.00 0.00 0.00 60 1006.8
20260507043146 75 108 4.0 0.0 0.00 0.00 0.00 60 1006.8
20260507042749 76 176 5.0 0.0 0.00 0.00 0.00 58 1007.0
20260507042238 76 168 5.0 0.0 0.00 0.00 0.00 57 1007.0
20260507041745 77 250 4.0 0.0 0.00 0.00 0.00 55 1007.0
20260507041253 77 216 4.0 0.0 0.00 0.00 0.00 55 1007.0
20260507040741 77 197 5.0 0.0 0.00 0.00 0.00 54 1007.0
20260507040248 78 178 4.0 0.0 0.00 0.00 0.00 53 1007.0
20260507040132 78 163 4.0 0.0 0.00 0.00 0.00 51 1007.0
20260507035739 79 155 4.0 0.0 0.00 0.00 0.00 50 1007.1
20260507035249 78 94 4.0 0.0 0.00 0.00 0.00 52 1007.1
20260507034239 79 106 3.0 0.0 0.00 0.00 0.00 49 1007.4
20260507033742 79 137 3.0 0.0 0.00 0.00 0.00 48 1007.4
20260507033253 79 125 3.0 0.0 0.00 0.00 0.00 49 1007.4
20260507033137 79 178 3.0 0.0 0.00 0.00 0.00 48 1007.4
20260507032754 79 134 3.0 0.0 0.00 0.00 0.00 49 1007.3
20260507032239 79 121 4.0 0.0 0.00 0.00 0.00 49 1007.3
20260507031745 79 87 4.0 0.0 0.00 0.00 0.00 50 1007.3
20260507031241 79 146 4.0 0.0 0.00 0.00 0.00 49 1007.5
20260507030753 80 142 3.0 0.0 0.00 0.00 0.00 47 1007.5
20260507030239 80 151 4.0 0.0 0.00 0.00 0.00 45 1007.5
20260507030145 80 154 4.0 0.0 0.00 0.00 0.00 45 1007.5
20260507025737 80 108 3.0 0.0 0.00 0.00 0.00 44 1007.8
20260507024747 80 158 3.0 0.0 0.00 0.00 0.00 44 1007.8
20260507023754 79 156 1.0 0.0 0.00 0.00 0.00 45 1008.0
20260507023244 79 203 1.0 0.0 0.00 0.00 0.00 44 1008.0
20260507023131 79 187 2.0 0.0 0.00 0.00 0.00 44 1008.0
20260507022744 79 96 2.0 0.0 0.00 0.00 0.00 44 1008.1
20260507022240 79 151 1.0 0.0 0.00 0.00 0.00 44 1008.1
20260507021733 79 127 1.0 0.0 0.00 0.00 0.00 42 1008.1
20260507021236 79 186 1.0 0.0 0.00 0.00 0.00 43 1008.5
20260507020748 79 89 1.0 0.0 0.00 0.00 0.00 42 1008.5
20260507020253 79 106 2.0 0.0 0.00 0.00 0.00 43 1008.5
20260507020136 79 106 2.0 0.0 0.00 0.00 0.00 43 1008.5
20260507015748 79 117 2.0 0.0 0.00 0.00 0.00 43 1008.6
20260507013737 78 120 1.0 0.0 0.00 0.00 0.00 45 1008.8
20260507013249 77 56 0.0 0.0 0.00 0.00 0.00 45 1008.8
20260507013135 77 347 0.0 0.0 0.00 0.00 0.00 45 1008.8
20260507012733 77 94 1.0 0.0 0.00 0.00 0.00 45 1009.1
20260507012253 77 97 1.0 0.0 0.00 0.00 0.00 46 1009.1
20260507011748 76 295 0.0 0.0 0.00 0.00 0.00 49 1009.0
20260507011245 76 309 0.0 0.0 0.00 0.00 0.00 47 1009.1
20260507010748 75 268 0.0 0.0 0.00 0.00 0.00 49 1009.1
20260507010243 75 17 0.0 0.0 0.00 0.00 0.00 48 1009.1
20260507010145 75 17 0.0 0.0 0.00 0.00 0.00 48 1009.1
20260507005742 75 45 0.0 0.0 0.00 0.00 0.00 48 1009.2
20260507005251 75 22 0.0 0.0 0.00 0.00 0.00 49 1009.2
20260507004739 75 17 0.0 0.0 0.00 0.00 0.00 49 1009.2
20260507004248 74 50 0.0 0.0 0.00 0.00 0.00 49 1009.5
20260507003738 75 87 0.0 0.0 0.00 0.00 0.00 48 1009.5
20260507002244 74 43 0.0 0.0 0.00 0.00 0.00 52 1009.6
20260507001743 74 45 1.0 0.0 0.00 0.00 0.00 51 1009.6
20260507001242 73 45 1.0 0.0 0.00 0.00 0.00 51 1009.7
20260507000738 73 35 0.0 0.0 0.00 0.00 0.00 52 1009.7
20260507000236 72 35 0.0 0.0 0.00 0.00 0.00 53 1009.7
20260507000140 72 35 0.0 0.0 0.00 0.00 0.00 54 1009.7
20260506234753 72 26 0.0 0.0 0.00 0.00 0.00 55 1010.0
20260506234242 71 12 0.0 0.0 0.00 0.00 0.00 57 1010.1
20260506233751 71 12 1.0 0.0 0.00 0.00 0.00 56 1010.1
20260506233247 71 12 1.0 0.0 0.00 0.00 0.00 56 1010.1
20260506233131 71 12 1.0 0.0 0.00 0.00 0.00 56 1010.1
20260506232753 71 7 0.0 0.0 0.00 0.00 0.00 56 1010.2
20260506232243 70 330 0.0 0.0 0.00 0.00 0.00 58 1010.2
20260506231736 70 326 0.0 0.0 0.00 0.00 0.00 59 1010.2
20260506231248 69 323 0.0 0.0 0.00 0.00 0.00 60 1010.4
20260506230742 69 323 0.0 0.0 0.00 0.00 0.00 60 1010.4
20260506230242 69 322 0.0 0.0 0.00 0.00 0.00 61 1010.4
20260506230129 69 323 0.0 0.0 0.00 0.00 0.00 61 1010.4
20260506225747 68 323 0.0 0.0 0.00 0.00 0.00 62 1010.5
20260506225239 68 322 0.0 0.0 0.00 0.00 0.00 62 1010.5
20260506224752 68 323 0.0 0.0 0.00 0.00 0.00 63 1010.5
20260506224243 68 322 0.0 0.0 0.00 0.00 0.00 64 1010.7
20260506223244 67 324 0.0 0.0 0.00 0.00 0.00 66 1010.7
20260506223130 66 323 0.0 0.0 0.00 0.00 0.00 66 1010.7
20260506222752 66 250 0.0 0.0 0.00 0.00 0.00 67 1011.1
20260506222242 66 268 0.0 0.0 0.00 0.00 0.00 68 1011.1
20260506221251 64 259 0.0 0.0 0.00 0.00 0.00 71 1011.0
20260506220748 64 248 0.0 0.0 0.00 0.00 0.00 71 1011.0
20260506220244 64 251 0.0 0.0 0.00 0.00 0.00 72 1011.0
20260506220134 63 272 0.0 0.0 0.00 0.00 0.00 72 1011.0
20260506215752 63 261 0.0 0.0 0.00 0.00 0.00 73 1011.1
20260506215241 63 288 0.0 0.0 0.00 0.00 0.00 74 1011.1
20260506214252 62 244 0.0 0.0 0.00 0.00 0.00 76 1011.2
20260506213742 62 251 0.0 0.0 0.00 0.00 0.00 77 1011.2
20260506213244 62 307 0.0 0.0 0.00 0.00 0.00 77 1011.2
20260506213130 62 259 0.0 0.0 0.00 0.00 0.00 78 1011.2
20260506212752 61 244 0.0 0.0 0.00 0.00 0.00 79 1011.2
20260506212242 61 244 0.0 0.0 0.00 0.00 0.00 79 1011.2
20260506211737 61 238 0.0 0.0 0.00 0.00 0.00 80 1011.2
20260506211252 60 241 0.0 0.0 0.00 0.00 0.00 81 1011.2
20260506210747 60 235 0.0 0.0 0.00 0.00 0.00 82 1011.2
20260506210246 60 238 0.0 0.0 0.00 0.00 0.00 83 1011.2
20260506210130 60 237 0.0 0.0 0.00 0.00 0.00 83 1011.2
20260506205751 60 238 0.0 0.0 0.00 0.00 0.00 83 1011.2
20260506205241 59 235 0.0 0.0 0.00 0.00 0.00 83 1011.2
20260506204247 59 240 0.0 0.0 0.00 0.00 0.00 83 1011.2
20260506203736 59 245 0.0 0.0 0.00 0.00 0.00 84 1011.2
20260506203236 58 241 0.0 0.0 0.00 0.00 0.00 84 1011.2
20260506203140 58 234 0.0 0.0 0.00 0.00 0.00 84 1011.2
20260506202741 58 233 0.0 0.0 0.00 0.00 0.00 84 1011.1
20260506201746 58 233 0.0 0.0 0.00 0.00 0.00 83 1011.1
20260506201238 58 233 0.0 0.0 0.00 0.00 0.00 83 1010.8
20260506200752 58 233 0.0 0.0 0.00 0.00 0.00 83 1010.8
20260506200256 58 231 0.0 0.0 0.00 0.00 0.00 83 1010.8
20260506195242 58 233 0.0 0.0 0.00 0.00 0.00 83 1011.1
20260506194251 58 231 0.0 0.0 0.00 0.00 0.00 83 1011.2
20260506193742 59 233 0.0 0.0 0.00 0.00 0.00 83 1011.2
20260506193240 59 234 0.0 0.0 0.00 0.00 0.00 83 1011.2
20260506193129 59 233 0.0 0.0 0.00 0.00 0.00 82 1011.2
20260506192747 59 233 0.0 0.0 0.00 0.00 0.00 82 1011.4
20260506192238 59 233 0.0 0.0 0.00 0.00 0.00 82 1011.4
20260506191753 59 233 0.0 0.0 0.00 0.00 0.00 82 1011.4
20260506191243 59 234 0.0 0.0 0.00 0.00 0.00 82 1011.4
20260506190736 60 233 0.0 0.0 0.00 0.00 0.00 82 1011.4
20260506190237 60 234 0.0 0.0 0.00 0.00 0.00 82 1011.4
20260506190140 60 233 0.0 0.0 0.00 0.00 0.00 82 1011.4
20260506185240 60 233 0.0 0.0 0.00 0.00 0.00 82 1011.7
20260506184734 60 234 0.0 0.0 0.00 0.00 0.00 82 1011.7
20260506184241 60 234 0.0 0.0 0.00 0.00 0.00 82 1011.7
20260506183750 60 235 0.0 0.0 0.00 0.00 0.00 82 1011.7
20260506183251 60 238 0.0 0.0 0.00 0.00 0.00 82 1011.7
20260506183135 60 231 0.0 0.0 0.00 0.00 0.00 82 1011.7
20260506182737 61 231 0.0 0.0 0.00 0.00 0.00 82 1011.7
20260506182248 61 231 0.0 0.0 0.00 0.00 0.00 82 1011.7
20260506181742 61 231 0.0 0.0 0.00 0.00 0.00 82 1011.7
20260506181252 61 233 0.0 0.0 0.00 0.00 0.00 82 1011.7
20260506180751 61 234 0.0 0.0 0.00 0.00 0.00 82 1011.7
20260506180251 61 233 0.0 0.0 0.00 0.00 0.00 81 1011.7
20260506180135 61 234 0.0 0.0 0.00 0.00 0.00 81 1011.7
20260506175736 61 238 0.0 0.0 0.00 0.00 0.00 81 1011.5
20260506175242 61 234 0.0 0.0 0.00 0.00 0.00 81 1011.5
20260506174738 61 234 0.0 0.0 0.00 0.00 0.00 81 1011.5
20260506174247 61 235 0.0 0.0 0.00 0.00 0.00 81 1011.8
20260506172752 62 242 0.0 0.0 0.00 0.00 0.00 81 1011.7
20260506172243 62 233 0.0 0.0 0.00 0.00 0.00 81 1011.7
20260506171737 62 251 0.0 0.0 0.00 0.00 0.00 81 1011.7
20260506171248 62 235 0.0 0.0 0.00 0.00 0.00 81 1011.9
20260506170144 62 218 0.0 0.0 0.00 0.00 0.00 80 1011.9
20260506165745 62 220 0.0 0.0 0.00 0.00 0.00 80 1012.1
20260506164250 62 217 0.0 0.0 0.00 0.00 0.00 80 1012.3
20260506163739 62 217 0.0 0.0 0.00 0.00 0.00 80 1012.3
20260506162749 62 218 0.0 0.0 0.00 0.00 0.00 80 1012.3
20260506161740 62 226 0.0 0.0 0.00 0.00 0.00 80 1012.3
20260506161251 62 217 0.0 0.0 0.00 0.00 0.00 81 1012.2
20260506160744 62 217 0.0 0.0 0.00 0.00 0.00 81 1012.2
20260506160244 63 217 0.0 0.0 0.00 0.00 0.00 81 1012.2
20260506160128 63 217 0.0 0.0 0.00 0.00 0.00 81 1012.2
20260506155750 63 217 0.0 0.0 0.00 0.00 0.00 81 1012.5
20260506155240 63 217 0.0 0.0 0.00 0.00 0.00 81 1012.5
20260506154245 63 217 0.0 0.0 0.00 0.00 0.00 81 1012.7
20260506153237 63 221 0.0 0.0 0.00 0.00 0.00 81 1012.7
20260506153141 63 218 0.0 0.0 0.00 0.00 0.00 81 1012.7
20260506152239 63 217 0.0 0.0 0.00 0.00 0.00 81 1012.9
20260506151752 63 224 0.0 0.0 0.00 0.00 0.00 81 1012.9
20260506150751 63 223 0.0 0.0 0.00 0.00 0.00 81 1013.0
20260506150246 63 220 0.0 0.0 0.00 0.00 0.00 81 1013.0
20260506150133 63 220 0.0 0.0 0.00 0.00 0.00 81 1013.0
20260506145751 63 218 0.0 0.0 0.00 0.00 0.00 81 1013.2
20260506145241 63 220 0.0 0.0 0.00 0.00 0.00 81 1013.2
20260506143750 63 216 0.0 0.0 0.00 0.00 0.00 81 1013.2
20260506143247 63 224 0.0 0.0 0.00 0.00 0.00 81 1013.2
20260506142735 63 220 0.0 0.0 0.00 0.00 0.00 81 1013.2
20260506142245 63 218 0.0 0.0 0.00 0.00 0.00 81 1013.2
20260506141247 63 218 0.0 0.0 0.00 0.00 0.00 80 1013.4
20260506140742 63 227 0.0 0.0 0.00 0.00 0.00 80 1013.4
20260506140240 63 228 0.0 0.0 0.00 0.00 0.00 80 1013.4
20260506140144 63 218 0.0 0.0 0.00 0.00 0.00 80 1013.4
20260506135747 63 220 0.0 0.0 0.00 0.00 0.00 80 1013.3
20260506135237 63 220 0.0 0.0 0.00 0.00 0.00 80 1013.3
20260506134751 63 220 0.0 0.0 0.00 0.00 0.00 80 1013.3
20260506134241 63 218 0.0 0.0 0.00 0.00 0.00 80 1013.8
20260506133751 63 218 0.0 0.0 0.00 0.00 0.00 80 1013.8
20260506133248 63 217 0.0 0.0 0.00 0.00 0.00 80 1013.8
20260506133132 63 221 0.0 0.0 0.00 0.00 0.00 80 1013.8
20260506132753 63 216 0.0 0.0 0.00 0.00 0.00 80 1013.8
20260506132242 63 217 0.0 0.0 0.00 0.00 0.00 80 1013.8
20260506131737 63 241 0.0 0.0 0.00 0.00 0.00 79 1013.8
20260506131246 64 244 0.0 0.0 0.00 0.00 0.00 79 1013.9
20260506130739 64 245 0.0 0.0 0.00 0.00 0.00 79 1013.9
20260506130238 64 255 0.0 0.0 0.00 0.00 0.00 79 1013.9
20260506130142 64 247 0.0 0.0 0.00 0.00 0.00 79 1013.9
20260506125242 64 242 0.0 0.0 0.00 0.00 0.00 78 1013.7
20260506124736 64 209 0.0 0.0 0.00 0.00 0.00 78 1013.7
20260506124245 64 207 0.0 0.0 0.00 0.00 0.00 77 1013.7
20260506123249 64 211 0.0 0.0 0.00 0.00 0.00 77 1013.7
20260506123133 64 210 0.0 0.0 0.00 0.00 0.00 77 1013.7
20260506122735 64 218 0.0 0.0 0.00 0.00 0.00 77 1013.6
20260506121746 64 207 0.0 0.0 0.00 0.00 0.00 76 1013.6
20260506121237 64 213 0.0 0.0 0.00 0.00 0.00 76 1013.9
20260506120254 64 241 0.0 0.0 0.00 0.00 0.00 75 1013.9
20260506120138 64 134 0.0 0.0 0.00 0.00 0.00 75 1013.9
20260506115736 64 134 0.0 0.0 0.00 0.00 0.00 75 1013.6
20260506115246 64 134 0.0 0.0 0.00 0.00 0.00 75 1013.6
20260506114741 64 134 0.0 0.0 0.00 0.00 0.00 74 1013.6
20260506114253 64 135 0.0 0.0 0.00 0.00 0.00 74 1013.7
20260506113743 64 151 0.0 0.0 0.00 0.00 0.00 74 1013.7
20260506113241 64 158 0.0 0.0 0.00 0.00 0.00 74 1013.7
20260506113145 64 158 0.0 0.0 0.00 0.00 0.00 74 1013.7
20260506112747 64 196 0.0 0.0 0.00 0.00 0.00 74 1013.5
20260506112236 64 159 0.0 0.0 0.00 0.00 0.00 74 1013.5
20260506111750 64 161 0.0 0.0 0.00 0.00 0.00 74 1013.5
20260506111240 64 163 0.0 0.0 0.00 0.00 0.00 74 1013.7
20260506110753 64 158 0.0 0.0 0.00 0.00 0.00 74 1013.7
20260506110237 64 158 0.0 0.0 0.00 0.00 0.00 74 1013.7
20260506110140 64 186 0.0 0.0 0.00 0.00 0.00 74 1013.7
20260506105739 64 196 0.0 0.0 0.00 0.00 0.00 74 1013.6
20260506104747 65 132 0.0 0.0 0.00 0.00 0.00 73 1013.6
20260506103253 65 234 0.0 0.0 0.00 0.00 0.00 73 1014.0
20260506102736 65 230 0.0 0.0 0.00 0.00 0.00 73 1013.8
20260506102242 65 240 0.0 0.0 0.00 0.00 0.00 72 1013.8
20260506101736 65 162 0.0 0.0 0.00 0.00 0.00 72 1013.8
20260506101239 65 145 0.0 0.0 0.00 0.00 0.00 72 1013.7
20260506100753 65 168 0.0 0.0 0.00 0.00 0.00 72 1013.7
20260506100251 65 155 0.0 0.0 0.00 0.00 0.00 72 1013.7
20260506100135 65 196 0.0 0.0 0.00 0.00 0.00 72 1013.7
20260506095248 65 173 0.0 0.0 0.00 0.00 0.00 71 1013.6
20260506094742 65 151 0.0 0.0 0.00 0.00 0.00 71 1013.6
20260506094252 65 173 0.0 0.0 0.00 0.00 0.00 70 1013.7
20260506093742 65 162 0.0 0.0 0.00 0.00 0.00 70 1013.7
20260506093237 65 139 0.0 0.0 0.00 0.00 0.00 69 1013.7
20260506093145 65 162 0.0 0.0 0.00 0.00 0.00 69 1013.7
20260506092240 65 179 0.0 0.0 0.00 0.00 0.00 69 1013.8
20260506091736 65 128 0.0 0.0 0.00 0.00 0.00 68 1013.8
20260506090752 65 211 0.0 0.0 0.00 0.00 0.00 68 1013.9
20260506090251 65 152 0.0 0.0 0.00 0.00 0.00 68 1013.9
20260506090135 65 169 0.0 0.0 0.00 0.00 0.00 68 1013.9
20260506085751 65 168 0.0 0.0 0.00 0.00 0.00 68 1013.6
20260506084742 66 182 0.0 0.0 0.00 0.00 0.00 68 1013.6
20260506084252 66 146 0.0 0.0 0.00 0.00 0.00 68 1013.8
20260506083745 66 189 0.0 0.0 0.00 0.00 0.00 68 1013.8
20260506083245 66 121 0.0 0.0 0.00 0.00 0.00 67 1013.8
20260506083129 66 180 0.0 0.0 0.00 0.00 0.00 67 1013.8
20260506082751 66 190 0.0 0.0 0.00 0.00 0.00 67 1013.6
20260506082241 66 185 0.0 0.0 0.00 0.00 0.00 66 1013.6
20260506081738 66 166 0.0 0.0 0.00 0.00 0.00 66 1013.6
20260506081249 66 235 0.0 0.0 0.00 0.00 0.00 66 1013.8
20260506080241 66 163 0.0 0.0 0.00 0.00 0.00 65 1013.8
20260506080131 66 186 0.0 0.0 0.00 0.00 0.00 65 1013.8
20260506073258 67 187 0.0 0.0 0.00 0.00 0.00 64 1013.9
20260506072750 67 173 0.0 0.0 0.00 0.00 0.00 63 1013.8
20260506072239 67 154 0.0 0.0 0.00 0.00 0.00 63 1013.8
20260506071752 67 161 0.0 0.0 0.00 0.00 0.00 62 1013.8
20260506071242 67 138 0.0 0.0 0.00 0.00 0.00 62 1013.8
20260506070755 67 183 0.0 0.0 0.00 0.00 0.00 62 1013.8
20260506070250 68 141 0.0 0.0 0.00 0.00 0.00 62 1013.8
20260506070136 68 145 0.0 0.0 0.00 0.00 0.00 61 1013.8
20260506062240 69 134 0.0 0.0 0.00 0.00 0.00 59 1013.9
20260506061753 69 152 0.0 0.0 0.00 0.00 0.00 58 1013.9
20260506061242 69 196 0.0 0.0 0.00 0.00 0.00 59 1014.2
20260506060242 69 202 0.0 0.0 0.00 0.00 0.00 59 1014.2
20260506060129 69 127 0.0 0.0 0.00 0.00 0.00 59 1014.2
20260506051240 68 234 0.0 0.0 0.00 0.00 0.00 60 1014.5
20260506050143 68 183 0.0 0.0 0.00 0.00 0.00 60 1014.5
20260506044752 68 173 0.0 0.0 0.00 0.00 0.00 59 1014.8
20260506043737 68 151 0.0 0.0 0.00 0.00 0.00 58 1015.1
20260506042241 68 213 0.0 0.0 0.00 0.00 0.00 57 1015.2
20260506041250 68 121 0.0 0.0 0.00 0.00 0.00 57 1015.4
20260506040746 68 186 0.0 0.0 0.00 0.00 0.00 56 1015.4
20260506040243 69 182 0.0 0.0 0.00 0.00 0.00 55 1015.4
20260506040147 69 180 0.0 0.0 0.00 0.00 0.00 55 1015.4
20260506035748 68 138 0.0 0.0 0.00 0.00 0.00 56 1015.8
20260506035238 68 182 0.0 0.0 0.00 0.00 0.00 56 1015.8
20260506034250 69 228 0.0 0.0 0.00 0.00 0.00 55 1015.9
20260506033738 69 158 0.0 0.0 0.00 0.00 0.00 55 1015.9
20260506033258 69 149 0.0 0.0 0.00 0.00 0.00 55 1015.9
20260506032741 68 186 0.0 0.0 0.00 0.00 0.00 55 1015.8
20260506032250 68 155 0.0 0.0 0.00 0.00 0.00 55 1015.8
20260506031745 69 186 0.0 0.0 0.00 0.00 0.00 55 1015.8
20260506031238 69 183 0.0 0.0 0.00 0.00 0.00 55 1015.9
20260506030737 69 228 0.0 0.0 0.00 0.00 0.00 55 1015.9
20260506030238 68 144 0.0 0.0 0.00 0.00 0.00 54 1015.9
20260506030143 69 163 0.0 0.0 0.00 0.00 0.00 54 1015.9
20260506025241 69 186 0.0 0.0 0.00 0.00 0.00 53 1016.0
20260506024736 69 158 0.0 0.0 0.00 0.00 0.00 54 1016.0
20260506024244 69 145 0.0 0.0 0.00 0.00 0.00 53 1016.3
20260506023749 69 226 0.0 0.0 0.00 0.00 0.00 53 1016.3
20260506023246 69 186 0.0 0.0 0.00 0.00 0.00 52 1016.3
20260506023130 69 183 0.0 0.0 0.00 0.00 0.00 52 1016.3
20260506022751 69 186 0.0 0.0 0.00 0.00 0.00 52 1016.7
20260506022243 69 313 0.0 0.0 0.00 0.00 0.00 52 1016.7
20260506021249 68 139 0.0 0.0 0.00 0.00 0.00 53 1016.9
20260506020742 68 173 0.0 0.0 0.00 0.00 0.00 53 1016.9
20260506020256 68 237 0.0 0.0 0.00 0.00 0.00 52 1016.9
20260506020140 68 186 0.0 0.0 0.00 0.00 0.00 52 1016.9
20260506015740 68 131 0.0 0.0 0.00 0.00 0.00 52 1017.3
20260506015245 67 128 0.0 0.0 0.00 0.00 0.00 51 1017.3
20260506014739 67 111 0.0 0.0 0.00 0.00 0.00 51 1017.3
20260506014248 66 231 0.0 0.0 0.00 0.00 0.00 52 1017.5
20260506013736 66 144 0.0 0.0 0.00 0.00 0.00 50 1017.5
20260506013146 66 216 0.0 0.0 0.00 0.00 0.00 50 1017.5
20260506012749 65 28 0.0 0.0 0.00 0.00 0.00 51 1017.9
20260506012242 65 28 0.0 0.0 0.00 0.00 0.00 51 1017.9
20260506011235 64 323 0.0 0.0 0.00 0.00 0.00 52 1018.0
20260506010751 64 327 0.0 0.0 0.00 0.00 0.00 52 1018.0
20260506010247 64 2 0.0 0.0 0.00 0.00 0.00 51 1018.0
20260506010135 64 4 0.0 0.0 0.00 0.00 0.00 52 1018.0
20260506005247 63 2 0.0 0.0 0.00 0.00 0.00 52 1018.1
20260506004741 63 2 0.0 0.0 0.00 0.00 0.00 52 1018.1
20260506004251 63 2 0.0 0.0 0.00 0.00 0.00 52 1018.3
20260506003243 62 2 0.0 0.0 0.00 0.00 0.00 54 1018.3
20260506002751 61 2 0.0 0.0 0.00 0.00 0.00 54 1018.5
20260506002240 61 4 0.0 0.0 0.00 0.00 0.00 54 1018.5
20260506001737 61 2 0.0 0.0 0.00 0.00 0.00 54 1018.5
20260506001243 61 1 0.0 0.0 0.00 0.00 0.00 54 1018.6
20260506000743 61 2 0.0 0.0 0.00 0.00 0.00 54 1018.6
20260506000241 61 1 0.0 0.0 0.00 0.00 0.00 54 1018.6
20260506000145 61 1 0.0 0.0 0.00 0.00 0.00 54 1018.6
20260505235747 61 1 0.0 0.0 0.00 0.00 0.00 54 1018.6
20260505235237 61 1 0.0 0.0 0.00 0.00 0.00 55 1018.6
20260505234752 61 1 0.0 0.0 0.00 0.00 0.00 54 1018.6
20260505234244 61 1 0.0 0.0 0.00 0.00 0.00 54 1018.6
20260505233735 61 2 0.0 0.0 0.00 0.00 0.00 55 1018.6
20260505233252 61 360 0.0 0.0 0.00 0.00 0.00 54 1018.6
20260505233136 61 5 0.0 0.0 0.00 0.00 0.00 54 1018.6
20260505232739 61 14 0.0 0.0 0.00 0.00 0.00 54 1018.7
20260505232245 61 12 0.0 0.0 0.00 0.00 0.00 54 1018.7
20260505231740 61 14 0.0 0.0 0.00 0.00 0.00 56 1018.7
20260505231250 60 25 0.0 0.0 0.00 0.00 0.00 56 1018.5
20260505230744 60 357 0.0 0.0 0.00 0.00 0.00 56 1018.5
20260505230243 60 353 0.0 0.0 0.00 0.00 0.00 58 1018.5
20260505230127 60 2 0.0 0.0 0.00 0.00 0.00 58 1018.5
20260505225749 59 4 0.0 0.0 0.00 0.00 0.00 58 1018.7
20260505225238 59 347 0.0 0.0 0.00 0.00 0.00 59 1018.7
20260505224245 59 347 0.0 0.0 0.00 0.00 0.00 60 1018.5
20260505223735 59 347 0.0 0.0 0.00 0.00 0.00 60 1018.5
20260505223250 58 347 0.0 0.0 0.00 0.00 0.00 60 1018.5
20260505222738 58 348 0.0 0.0 0.00 0.00 0.00 60 1018.7
20260505222246 58 316 0.0 0.0 0.00 0.00 0.00 60 1018.7